TimeCST,TemperatureF,Dew PointF,Humidity,Sea Level PressureIn,VisibilityMPH,Wind Direction,Wind SpeedMPH,Gust SpeedMPH,PrecipitationIn,Events,Conditions,WindDirDegrees,DateUTC
12:53 AM,27.0,17.1,66,30.32,10.0,North,6.9,-,N/A,,Overcast,350,2013-02-16 06:53:00
1:53 AM,26.1,17.1,69,30.31,10.0,North,4.6,-,N/A,,Overcast,360,2013-02-16 07:53:00
2:53 AM,24.1,17.1,75,30.31,10.0,NNW,4.6,-,N/A,,Overcast,330,2013-02-16 08:53:00
3:53 AM,21.9,16.0,78,30.31,10.0,NNW,5.8,-,N/A,,Clear,340,2013-02-16 09:53:00
4:53 AM,21.9,15.1,75,30.32,10.0,NNW,5.8,-,N/A,,Clear,330,2013-02-16 10:53:00
5:53 AM,21.0,15.1,78,30.32,10.0,NW,4.6,-,N/A,,Clear,320,2013-02-16 11:53:00
6:53 AM,19.9,15.1,81,30.34,10.0,WNW,5.8,-,N/A,,Clear,300,2013-02-16 12:53:00
7:53 AM,21.9,15.1,75,30.34,10.0,NW,4.6,-,N/A,,Clear,310,2013-02-16 13:53:00
8:53 AM,24.1,16.0,71,30.35,10.0,NNW,3.5,-,N/A,,Clear,340,2013-02-16 14:53:00
9:53 AM,27.0,16.0,63,30.34,10.0,NW,4.6,-,N/A,,Clear,320,2013-02-16 15:53:00
10:53 AM,30.0,16.0,56,30.32,10.0,North,4.6,-,N/A,,Clear,350,2013-02-16 16:53:00
11:53 AM,32.0,16.0,52,30.30,10.0,West,9.2,-,N/A,,Clear,270,2013-02-16 17:53:00
12:53 PM,35.1,16.0,46,30.27,10.0,WSW,8.1,-,N/A,,Clear,240,2013-02-16 18:53:00
1:53 PM,36.0,16.0,44,30.23,10.0,West,10.4,19.6,N/A,,Partly Cloudy,260,2013-02-16 19:53:00
2:53 PM,36.0,17.1,46,30.21,10.0,SW,6.9,-,N/A,,Overcast,230,2013-02-16 20:53:00
3:53 PM,35.1,17.1,48,30.21,10.0,WSW,9.2,23.0,N/A,,Overcast,250,2013-02-16 21:53:00
4:53 PM,34.0,16.0,48,30.21,10.0,WSW,10.4,-,N/A,,Overcast,240,2013-02-16 22:53:00
5:53 PM,34.0,18.0,52,30.21,10.0,WSW,5.8,-,N/A,,Overcast,240,2013-02-16 23:53:00
6:53 PM,34.0,19.0,54,30.21,10.0,SW,5.8,-,N/A,,Overcast,230,2013-02-17 00:53:00
7:53 PM,33.1,19.9,59,30.20,10.0,SW,5.8,-,N/A,,Overcast,220,2013-02-17 01:53:00
8:53 PM,32.0,21.0,64,30.19,10.0,South,4.6,-,N/A,,Overcast,190,2013-02-17 02:53:00
9:53 PM,32.0,21.9,66,30.18,10.0,South,5.8,-,N/A,,Overcast,170,2013-02-17 03:53:00
10:53 PM,32.0,21.0,64,30.17,10.0,SSE,4.6,-,N/A,,Overcast,150,2013-02-17 04:53:00
11:53 PM,32.0,21.0,64,30.15,10.0,SSE,5.8,-,N/A,,Overcast,150,2013-02-17 05:53:00